Location: Altmatt
(47.1333°N, 8.7000°E)
Time: 07:57:29
(UTC+00:00)

Meteor 1-27 Rocket - Pass Details

Date: 13 July 2020
Orbit: 830 x 910 km, 81.3° (Epoch: 04 August)

Event Time Altitude Azimuth Distance (km) Brightness Sun altitude
Rises 23:05:28 0° 351° (N) 3,423 8.4 -21.0°
Reaches altitude 10° 23:07:55 10° 355° (N) 2,494 7.3 -21.0°
Maximum altitude 23:13:31 59° 75° (ENE) 993 4.0 -21.1°
Enters shadow 23:15:48 35° 139° (SE) 1,374 4.4 -21.1°
